Zurück zum Katalog

FENGYUN 1C DEB

AktivSSO
NORAD 30883·DEBRIS·🇨🇳 China

Gestartet May 10, 1999 von Taiyuan Satellite Launch Center

Loading…

Nächste Überflüge (nächste 24 Stunden)

TLE

AktuellSource: Space-Track

Epoche: Sep 12, 2026, 07:19 UTC

1 30883U 99025AXV 26255.30551019  .00000185  00000-0  10924-3 0  9994
2 30883  98.3340 279.7114 0112947 144.3220 278.2436 14.14724644  7705

Verfolge FENGYUN 1C DEB in Echtzeit mit AllMySat

Download on the App Store